Flag for Panama Weather past 2 weeks in Panama, Panama

Now
82 °F

Passing clouds.


Feels Like: 85 °F
Forecast: N/A
Wind: 8 mph from Northwest

Location: Marcos A. Gelabert

Current Time: Jan 27, 2015 at 6:54:27 PM

Latest Report: Jan 27, 2015 at 6:00 PM


Visibility: N/A

Pressure: 29.86 "Hg

Humidity: 62%

Dew point: 68 °F

Location of PanamaLocation

Historic Weather in Panama — Graph

°F

Panama temperature yesterday

Maximum temperature yesterday: 90 °F (at 3:00 PM)
Minimum temperature yesterday: 75 °F (at 6:00 AM)
Average temperature yesterday: 83 °F

Past Weeks' High & Low Weather Summary

 TemperatureHumidityPressure
High91 °F (Jan 14, 2:00 PM)94% (Jan 17, 2:00 PM)30.01 "Hg (Jan 17, 2:00 PM)
Low73 °F (Jan 23, 6:00 AM)43% (Jan 27, 3:00 PM)29.77 "Hg (Jan 12, 6:00 PM)
Average83 °F71%29.88 "Hg
* Reported Jan 12 6:00 PM — Jan 27 6:00 PM, Panama, Weather by CustomWeather, © 2014

Note: Actual official high and low records may vary slightly from our data, if they occured in-between our weather recording intervals... More about our weather records

Advertising

Panama weather history for previous 24 hours

 ConditionsComfort  
Time TempWeatherWind HumidityBarometerVisibility
6:00 PM
Jan 27
82 °FPassing clouds.8 mph62%29.86 "HgN/A
5:00 PM86 °FPassing clouds.14 mph55%29.83 "HgN/A
4:00 PM88 °FPassing clouds.12 mph46%29.83 "HgN/A
3:00 PM90 °FScattered clouds.12 mph43%29.83 "HgN/A
2:00 PM90 °FScattered clouds.14 mph46%29.86 "HgN/A
1:00 PM90 °FScattered clouds.15 mph46%29.89 "HgN/A
12:00 PM90 °FScattered clouds.17 mph46%29.89 "HgN/A
11:00 AM86 °FScattered clouds.16 mph55%29.92 "HgN/A
10:00 AM82 °FPassing clouds.9 mph70%29.95 "HgN/A
9:00 AM79 °FPassing clouds.7 mph79%29.95 "HgN/A
8:00 AM77 °FPassing clouds.6 mph83%29.92 "HgN/A
7:00 AM75 °FPassing clouds.6 mph83%29.92 "HgN/A
6:00 AM75 °FClear.7 mph83%29.89 "Hg10 mi
10:00 PM
Jan 26
79 °FClear.2 mph79%29.92 "Hg10 mi
9:00 PM79 °FClear.2 mph79%29.92 "Hg10 mi
8:00 PM81 °FClear.3 mph70%29.89 "Hg10 mi
7:00 PM81 °FClear.8 mph70%29.86 "Hg10 mi
6:00 PM84 °FPassing clouds.10 mph58%29.83 "HgN/A
Weather by CustomWeather, © 2014

See weather overviewHow to use our weather pages